Flag for Germany Weather past 2 weeks in Bornheim (Rheinland), North Rhine-Westphalia, Germany

Now
45 °F

Overcast.


Feels Like: 45 °F
Forecast: 40 / 63 °F
Wind: 2 mph from West

Location: Bonn-Hangelar

Current Time: May 26, 2015 at 4:57:07 AM

Latest Report: May 26, 2015 at 4:00 AM


Visibility: 19 mi

Pressure: 30.09 "Hg

Humidity: 91%

Dew point: 43 °F

Location of Bornheim (Rheinland)Location

Historic Weather in Bornheim (Rheinland) — Graph

°F

Bornheim (Rheinland) temperature yesterday

Maximum temperature yesterday: 59 °F (at 1:00 PM)
Minimum temperature yesterday: 49 °F (at 2:00 AM)
Average temperature yesterday: 53 °F

Past Weeks' High & Low Weather Summary

 TemperatureHumidityPressure
High77 °F (May 11, 6:00 PM)100% (May 15, 6:00 AM)30.37 "Hg (May 15, 6:00 AM)
Low39 °F (May 21, 5:00 AM)36% (May 13, 5:00 PM)29.67 "Hg (May 18, 8:00 PM)
Average54 °F74%30.08 "Hg
* Reported May 11 4:00 AM — May 26 4:00 AM, Bornheim (Rheinland), Weather by CustomWeather, © 2015

Note: Actual official high and low records may vary slightly from our data, if they occured in-between our weather recording intervals... More about our weather records

Advertising

Bornheim (Rheinland) weather history for previous 24 hours

 ConditionsComfort  
Time TempWeatherWind HumidityBarometerVisibility
4:00 AM
Tue, May 26
45 °FOvercast.2 mph91%30.09 "Hg19 mi
3:00 AM46 °FPassing clouds.3 mph87%30.08 "Hg22 mi
2:00 AM48 °FOvercast.5 mph80%30.07 "Hg28 mi
1:00 AM49 °FOvercast.5 mph77%30.07 "Hg31 mi
12:00 AM50 °FOvercast.5 mph76%30.06 "Hg28 mi
11:00 PM
Mon, May 25
51 °FOvercast.5 mph74%30.05 "Hg25 mi
10:00 PM53 °FOvercast.5 mph75%30.03 "Hg22 mi
9:00 PM55 °FOvercast.5 mph69%30.01 "Hg22 mi
8:00 PM56 °FOvercast.6 mph67%29.99 "Hg22 mi
7:00 PM57 °FOvercast.5 mph68%29.98 "Hg15 mi
6:00 PM57 °FOvercast.5 mph71%29.97 "Hg12 mi
5:00 PM58 °FOvercast.5 mph72%29.98 "Hg19 mi
4:00 PM57 °FOvercast.5 mph79%29.98 "Hg16 mi
3:00 PM57 °FThunderstorms. Partly sunny.7 mph89%29.98 "Hg8 mi
2:00 PM56 °FSprinkles. Overcast.6 mph89%29.97 "Hg5 mi
1:00 PM59 °FOvercast.3 mph90%29.98 "Hg6 mi
12:00 PM54 °FDrizzle. Low clouds.5 mph97%30.00 "Hg3 mi
11:00 AM53 °FDrizzle. Low clouds.3 mph99%30.01 "Hg2 mi
10:00 AM53 °FDrizzle. Low clouds.3 mph99%30.01 "Hg5 mi
9:00 AM51 °FRain. Low clouds.5 mph97%30.01 "Hg2 mi
8:00 AM50 °FRain. Low clouds.2 mph90%30.02 "Hg9 mi
7:00 AM51 °FOvercast.3 mph81%30.02 "Hg12 mi
6:00 AM51 °FOvercast.2 mph84%30.02 "Hg22 mi
5:00 AM51 °FDrizzle. Overcast.2 mph81%30.03 "Hg14 mi
4:00 AM51 °FOvercast.1 mph73%30.03 "Hg16 mi
Weather by CustomWeather, © 2015

See weather overviewHow to use our weather pages